Starlink 1687

operational
NORAD ID: 46541 Int'l Des: 2020-070 Owner: SPXS Country: US Constellation: starlink
LEOCIRCULAR

关于 Starlink 1687

正在加载描述...

实时位置

正在加载3D地球...

即将过境

高度历史

Altitude vs Time

uPlot chart will show altitude changes over time

两行轨道根数

1 46541U 20070K 25307.91670139 .00118219 00000-0 26157-2 0 9997
2 46541 53.0508 351.0151 0011879 350.7031 174.4949 15.42867059 5880
Epoch: Nov 3, 2025 • Age: 4 hours

当前状态

高度 447.0 km
速度 7.65 km/s
星下点 42.80°N, 45.53°E
发射日期 Oct 6, 2020
运行时间 5 years
类型 internet

技术详情

分类 Payload
质量 260.00 kg
干质量 248.00 kg
总质量 260.00 kg
长度 0.20 m
直径 2.80 m
跨度 9.00 m
形状 Box + pan
制造商 SPXS
平台类型 Starlink
阶段状态 In Orbit
所有者/国家 SPXS/US

大型星座

Loading constellations...